Location: Ústí nad Labem
(50.6611°N, 14.0531°E)
Time: 23:06:06
(UTC+02:00)

Vanguard 2 - All Passes

Search period start: 12 April 2024 00:00
Search period end: 22 April 2024 00:00
Orbit: 553 x 2917 km, 32.9° (Epoch: 12 April)

Date Brightness Start Highest point End Pass type
(mag) Time Alt. Az. Time Alt. Az. Time Alt. Az.
12 Apr - 03:26:34 10° S 03:37:09 19° SE 03:46:59 10° ESE visible
12 Apr - 05:32:13 10° SW 05:46:30 33° SSE 05:58:01 10° ESE visible
12 Apr - 07:42:09 10° WSW 07:55:58 35° S 08:05:55 10° SE daylight
12 Apr - 09:54:22 10° WSW 10:04:14 24° SSW 10:11:25 10° SSE daylight
13 Apr - 03:39:11 10° SSW 03:51:24 24° SSE 04:02:37 10° ESE visible
13 Apr - 05:46:09 10° SW 06:00:57 36° S 06:12:47 10° ESE daylight
13 Apr - 07:56:39 10° WSW 08:10:24 35° SSW 08:20:19 10° SE daylight
13 Apr - 10:09:28 10° WSW 10:18:23 21° SW 10:25:08 10° S daylight
14 Apr - 01:52:23 10° SSE 01:56:59 12° SE 02:01:36 10° ESE visible
14 Apr - 03:52:20 10° SSW 04:05:40 28° SSE 04:17:53 10° ESE visible
14 Apr - 06:00:17 10° SW 06:15:24 38° S 06:27:26 10° ESE daylight
14 Apr - 08:11:14 10° WSW 08:24:45 33° SSW 08:34:36 10° SE daylight
14 Apr - 10:24:53 10° WSW 10:32:27 17° SW 10:38:29 10° S daylight
15 Apr - 02:02:30 10° SSE 02:11:00 16° SE 02:19:33 10° ESE visible
15 Apr - 04:05:49 10° SSW 04:19:58 32° SSE 04:32:53 10° ESE visible
15 Apr - 06:14:32 10° WSW 06:29:50 39° S 06:41:59 10° ESE daylight
15 Apr - 08:25:56 10° WSW 08:39:03 31° SSW 08:48:44 10° SSE daylight
15 Apr - 10:40:52 10° WSW 10:46:25 14° SW 10:51:08 10° SSW daylight
16 Apr - 02:14:30 10° S 02:25:03 20° SE 02:35:47 10° ESE visible
16 Apr - 04:19:35 10° SW 04:34:18 35° SSE 04:47:44 10° ESE visible
16 Apr - 06:28:54 10° WSW 06:44:15 39° S 06:56:27 10° ESE daylight
16 Apr - 08:40:46 10° WSW 08:53:16 28° SSW 09:02:42 10° SSE daylight
16 Apr - 10:59:34 10° SW 11:00:19 10° SW 11:01:02 10° SW daylight
17 Apr - 02:27:15 10° SSW 02:39:08 24° SSE 02:51:21 10° ESE visible
17 Apr - 04:33:33 10° SW 04:48:40 38° SSE 05:02:26 10° ESE visible
17 Apr - 06:43:23 10° WSW 06:58:38 38° S 07:10:48 10° SE daylight
17 Apr - 08:55:44 10° WSW 09:07:24 25° SSW 09:16:25 10° SSE daylight
18 Apr - 00:41:43 10° SE 00:45:06 11° SE 00:48:35 10° ESE visible
18 Apr - 02:40:29 10° SSW 02:53:16 28° SSE 03:06:32 10° ESE visible
18 Apr - 04:47:41 10° SW 05:03:02 40° S 05:17:03 10° ESE visible
18 Apr - 06:57:57 10° WSW 07:12:59 37° SSW 07:25:02 10° SE daylight
18 Apr - 09:10:57 10° WSW 09:21:26 21° SW 09:29:50 10° S daylight
19 Apr - 00:51:32 10° SSE 00:58:58 15° SE 01:06:59 10° ESE visible
19 Apr - 02:54:02 10° SSW 03:07:28 32° SSE 03:21:30 10° ESE visible
19 Apr - 05:01:56 10° WSW 05:17:25 41° S 05:31:33 10° ESE visible
19 Apr - 07:12:37 10° WSW 07:27:15 35° SSW 07:39:08 10° SE daylight
19 Apr - 09:26:33 10° WSW 09:35:23 17° SW 09:42:45 10° S daylight
20 Apr - 01:03:32 10° S 01:12:52 19° SE 01:23:15 10° ESE visible
20 Apr - 03:07:50 10° SW 03:21:42 35° SSE 03:36:18 10° ESE visible
20 Apr - 05:16:18 10° WSW 05:31:48 41° S 05:45:58 10° ESE visible
20 Apr - 07:27:23 10° WSW 07:41:27 32° SSW 07:53:03 10° SSE daylight
20 Apr - 09:42:56 10° WSW 09:49:15 14° SW 09:54:49 10° SSW daylight
21 Apr - 01:16:20 10° S 01:26:50 23° SE 01:38:50 10° E visible
21 Apr - 03:21:49 10° SW 03:35:58 38° SSE 03:50:59 10° ESE visible
21 Apr - 05:30:46 10° WSW 05:46:09 40° S 06:00:17 10° SE daylight
21 Apr - 07:42:17 10° W 07:55:34 28° SSW 08:06:44 10° SSE daylight
